Regional Weather Roundup
Issued by NWS Jackson, KY

Home | Current Version | Previous Version | Graphics & Text | Print | Product List | Glossary On
Versions: 1 2 3 4 5 6 7 8 9 10 11 12 13 14 15 16 17 18 19 20 21 22 23 24 25 26 27
000
ASUS43 KJKL 210110
RWRJKL

EAST KENTUCKY HOURLY WEATHER ROUNDUP
NATIONAL WEATHER SERVICE JACKSON KY
900 PM EDT THU JUL 20 2017

NOTE: "FAIR" INDICATES FEW OR NO CLOUDS BELOW 12,000 FEET WITH
NO SIGNIFICANT WEATHER AND/OR OBSTRUCTIONS TO VISIBILITY.

* THESE REPORTS ARE NOT UNDER NWS QUALITY CONTROL AND MAY NOT
  REPORT WEATHER SUCH AS PRECIPITATION AND FOG.

KYZ079-080-083-085-087-088-110-112-115-119-120-210200
...EASTERN KENTUCKY...

CITY           SKY/WX    TMP DP  RH WIND       PRES   REMARKS
JACKSON        CLOUDY    82  70  66 CALM      30.07R
LONDON         CLOUDY    83  71  67 NW3       30.06S
SOMERSET*      CLOUDY    82  70  65 CALM      30.07R
MONTICELLO*    PTCLDY    79  77  94 VRB6      30.07S
WILLIAMSBURG*  CLOUDY    82  73  74 CALM      30.06F
MIDDLESBORO*   CLOUDY    79  71  75 CALM      30.07S
HARLAN APT*    CLOUDY    77  68  73 CALM      30.08S
PIKE CO APT*     N/A     81  70  68 CALM      30.08R
BIG SANDY APT* PTCLDY    82  71  69 CALM      30.06R
MOREHEAD APT*  CLOUDY    82  75  78 CALM      30.06R
ASHLAND*         N/A    N/A N/A N/A MISG        N/A
$$

KYZ035-036-041-042-044-050-067-078-099-210200
...CENTRAL KENTUCKY...

CITY           SKY/WX    TMP DP  RH WIND       PRES   REMARKS
MT STERLING*   PTCLDY    82  73  74 SW3       30.06R
FLEMING/MASON* MOCLDY    84  73  70 SW3       30.04S HX  91
DANVILLE*      CLEAR     82  73  74 CALM      30.06R
LEXINGTON      CLOUDY    84  72  67 W5        30.04R
FRANKFORT      CLEAR     84  73  69 SW3       30.02R HX  90
LOUISVILLE     PTCLDY    88  72  58 SW6       30.00R HX  94
LEBANON*         N/A     84  73  70 CALM      30.04S HX  91
GLASGOW*       CLEAR     84  73  69 CALM      30.04R
BOWLING GREEN  CLEAR     88  74  63 W5        30.02S HX  96
$$

KYZ091>093-OHZ055-061-077-WVZ005-015-034-035-042-210200
...SOUTHERN OHIO/WEST VIRGINIA...

CITY           SKY/WX    TMP DP  RH WIND       PRES   REMARKS
COVINGTON      MOCLDY    85  73  67 SW5       30.01R HX  91
COLUMBUS       CLOUDY    82  73  74 W7        30.00R
DAYTON         MOCLDY    82  75  79 S6        30.00F
WILMINGTON     CLOUDY    81  79  94 S3        30.01S HX  90
HUNTINGTON     CLOUDY    83  73  72 S3        30.02S
CHARLESTON     PTCLDY    82  68  62 W3        30.03S
PINEVILLE*     CLOUDY    74  70  86 MISG      30.14R
BECKLEY        PTCLDY    76  64  66 NW3       30.14R
BLUEFIELD      PTCLDY    74  63  68 NW6       30.16R
LOGAN CO APT*    N/A     81  68  65 CALM      30.08S
$$

VAZ002-007-008-TNZ017-027-036-066-071-210200
...SOUTHWEST VIRGINIA/EAST TENNESSEE...

CITY           SKY/WX    TMP DP  RH WIND       PRES   REMARKS
WISE*          CLOUDY    77  61  57 CALM      30.17R
JONESVILLE*      N/A     81  68  65 CALM      30.09R
ABINGDON*      CLOUDY    79  69  71 CALM      30.11R
BRISTOL        MOCLDY    81  69  67 W5        30.06S
MORRISTOWN*    CLEAR     84  68  58 CALM      30.06R
SEVIERVILLE*   CLEAR     81  66  61 CALM      30.05R
LAFOLLETTE*    CLEAR     79  72  78 CALM      30.09S
OAK RIDGE      PTCLDY    84  73  69 CALM      30.06R HX  90
CROSSVILLE     CLOUDY    80  72  76 N3        30.12R
NASHVILLE      MOCLDY    88  72  58 W7        30.03S HX  94
$$

...KEY TO REMARKS...
VSB - VISIBILITY IN MILES
WCI - WIND CHILL INDEX
HX  - HEAT INDEX

$$




USA.gov is the U.S. government's official web portal to all federal, state and local government web resources and services.